WELCOME TO AIR WEST FLIGHT SUPPORT

Slider

THE RIGHT CHOICE FOR THE BEST SERVICE

OUR GOAL IS TO BE THE MOST ACCOMMODATING FBO IN LETHBRIDGE, AB. WITH EFFICIENT AND PROFFESSIONAL SERVICE

 WE HAVE GOT IT ALL!

  • Great Attitude
  • The Right Equipment
  • Large Facilities
  • Competitive Fuel Prices
  • In-House Aircraft Maintenance
  • In-House Flight Training, Aircraft Rentals
  • Aircraft Sales And Much  More!

Facebook By Weblizar Powered By Weblizar

 


We are located at the Lethbridge County Airport (CYQL) on Ramp 2 at the east end of Taxiway C.   Lethbridge is a key point of entry where you can clear customs using
CANPASS.  The Airport is approximately 5 km south of the City of Lethbridge, which offers convenient access to nearby towns such as Cardston, Crowsnest Pass, Coaldale, Fort MacLeod, Milk River, Pincher Creek and Taber.  Lethbridge and its surrounding area is a great tourist destination

 


Click on image to enlarge

Available data for CYQL from the past 2 hours
LETHBRIDGE VOR, AB
Metar
CYQL 240100Z VRB02KT 60SM SCT023 SCT170 BKN270 M17/M21 A3033 RMK SC3AC1CI1 SLP352

01:00 UTC

Wind: ° 2kt

Visibility: 60 SM

Sky: SCT 2300 ft

Temp: -17 deg C / 1.4 deg F

Dewpoint: -21 deg C / -5.8 deg F

Pressure: 30.33 inHg

TAF
TAF CYQL 232338Z 2400/2412 34006KT P6SM SCT020 BKN270 FM240400 VRB03KT P6SM SCT020 TEMPO 2404/2412 P6SM -SN BKN020 RMK NXT FCST BY 240600Z